Regional Weather Roundup
Issued by NWS

Home | Current Version | Previous Version | Graphics & Text | Print | Product List | Glossary On
Versions: 1 2 3 4 5 6 7 8 9 10 11 12 13 14 15 16 17 18 19 20 21 22 23 24 25 26 27 28 29 30 31 32 33 34 35 36 37 38 39 40 41 42 43 44 45 46 47 48 49 50
000
ASUS43 KFSD 212102
RWRSD

WEATHER ROUNDUP FOR SOUTH DAKOTA
NATIONAL WEATHER SERVICE SIOUX FALLS SD
400 PM CDT THU MAY 21 2015

NOTE: "FAIR" INDICATES FEW OR NO CLOUDS BELOW 12,000 FEET WITH NO
SIGNIFICANT WEATHER AND/OR OBSTRUCTIONS TO VISIBILITY.


SDZ001>005-009-010-012>017-212200-
NORTHWEST AND NORTH CENTRAL SOUTH DAKOTA

CITY           SKY/WX    TMP DP  RH WIND       PRES   REMARKS
BUFFALO          N/A     67  29  24 SE18G29   30.10F
FAITH            N/A     66  30  26 SE7       30.18F
MOBRIDGE       SUNNY     75  30  19 NW8       30.13F
$$

SDZ012>016-024>037-041>051-057-063-072>074-212200-
SOUTHWEST AND SOUTH CENTRAL SOUTH DAKOTA

CITY           SKY/WX    TMP DP  RH WIND       PRES   REMARKS
RAPID CTY ARPT SUNNY     62  34  35 S15       30.19F
PIERRE         SUNNY     70  33  25 VRB5      30.17F
CUSTER         MOSUNNY   51  32  48 SE9       30.20F
ELLSWORTH AFB  SUNNY     62  29  27 SE15G22   30.17
PHILIP         SUNNY     67  32  27 SE7       30.18F
PINE RIDGE     PTSUNNY   60  39  45 S9        30.19F
WINNER         FAIR      68  32  26 CALM      30.20F
$$

SDZ004>011-016>023-039-040-212200-
NORTHEAST SOUTH DAKOTA

CITY           SKY/WX    TMP DP  RH WIND       PRES   REMARKS
ABERDEEN       SUNNY     75  40  28 N12       30.13F
WATERTOWN      SUNNY     72  38  29 NW16      30.13F
BROOKINGS      SUNNY     72  37  28 NW15G21   30.13F
$$

SDZ017-020-022-023-036>040-048>070-212200-
SOUTHEAST SOUTH DAKOTA

CITY           SKY/WX    TMP DP  RH WIND       PRES   REMARKS
SIOUX FALLS    MOSUNNY   74  36  25 NW16G26   30.12F
HURON          MOSUNNY   76  35  22 NW10      30.13F
CHAMBERLAIN    SUNNY     69  35  28 SW6       30.18F
MITCHELL       SUNNY     75  36  24 NW14G20   30.16F
YANKTON        SUNNY     70  39  32 W8        30.16F
$$

ABBREVIATIONS USED IN REMARKS
   TC - TEMPERATURE IN CELSIUS
  WCI - WIND CHILL INDEX
   HX - HEAT INDEX
  VSB - VISIBILITY



USA.gov is the U.S. government's official web portal to all federal, state and local government web resources and services.